DW5852 Weather Reports


Display with metric or nautical units.
time (UTC)temp
F
wind
direction
speed
MPH
gust
MPH
rain 1hr
in
rain 24hr
in
rain mn
in
humidity
%
barometer
mb
20181212162239 39 125 0.0 0.0 0.00 0.00 0.00 50 1009.0
20181212161739 39 92 0.0 0.0 0.00 0.00 0.00 50 1009.0
20181212161239 39 74 0.0 0.0 0.00 0.00 0.00 51 1009.0
20181212160738 39 68 0.0 5.0 0.00 0.00 0.00 50 1009.0
20181212160239 38 89 0.0 0.0 0.00 0.00 0.00 51 1009.1
20181212155739 38 88 0.0 0.0 0.00 0.00 0.00 51 1009.1
20181212155239 37 79 0.0 0.0 0.00 0.00 0.00 52 1009.0
20181212154738 37 334 0.0 0.0 0.00 0.00 0.00 52 1009.1
20181212154239 37 76 0.0 0.0 0.00 0.00 0.00 52 1009.1
20181212153739 37 49 0.0 0.0 0.00 0.00 0.00 52 1009.1
20181212153239 37 107 0.0 0.0 0.00 0.00 0.00 52 1009.2
20181212152739 37 78 0.0 0.0 0.00 0.00 0.00 53 1009.3
20181212152239 36 82 0.0 0.0 0.00 0.00 0.00 54 1009.3
20181212151739 36 82 0.0 0.0 0.00 0.00 0.00 55 1009.3
20181212151239 35 101 0.0 0.0 0.00 0.00 0.00 56 1009.3
20181212150739 35 256 0.0 0.0 0.00 0.00 0.00 58 1009.4
20181212150239 34 295 0.0 0.0 0.00 0.00 0.00 58 1009.4
20181212145739 34 295 0.0 0.0 0.00 0.00 0.00 58 1009.4
20181212145239 34 295 0.0 0.0 0.00 0.00 0.00 60 1009.5
20181212144739 33 287 0.0 0.0 0.00 0.00 0.00 60 1009.5
20181212144239 33 286 0.0 0.0 0.00 0.00 0.00 60 1009.6
20181212143740 33 276 0.0 0.0 0.00 0.00 0.00 60 1009.7
20181212143239 33 266 0.0 0.0 0.00 0.00 0.00 61 1009.7
20181212142739 32 274 0.0 0.0 0.00 0.00 0.00 63 1009.7
20181212142238 31 250 0.0 0.0 0.00 0.00 0.00 63 1009.7
20181212141739 31 282 0.0 0.0 0.00 0.00 0.00 63 1009.8
20181212141238 31 285 0.0 0.0 0.00 0.00 0.00 64 1009.9
20181212140739 30 268 0.0 0.0 0.00 0.00 0.00 65 1009.9
20181212140239 31 295 0.0 0.0 0.00 0.00 0.00 65 1009.9
20181212135739 30 295 0.0 0.0 0.00 0.00 0.00 66 1010.0
20181212135239 30 89 0.0 0.0 0.00 0.00 0.00 67 1010.0
20181212134739 30 95 0.0 0.0 0.00 0.00 0.00 66 1010.1
20181212134239 30 95 0.0 0.0 0.00 0.00 0.00 66 1010.1
20181212133738 30 91 0.0 0.0 0.00 0.00 0.00 66 1010.2
20181212133239 30 91 0.0 0.0 0.00 0.00 0.00 65 1010.1
20181212132739 31 91 0.0 0.0 0.00 0.00 0.00 64 1010.2
20181212132239 31 94 0.0 0.0 0.00 0.00 0.00 64 1010.3
20181212131739 31 84 0.0 0.0 0.00 0.00 0.00 65 1010.3
20181212131239 30 89 0.0 0.0 0.00 0.00 0.00 65 1010.4
20181212130738 30 96 0.0 0.0 0.00 0.00 0.00 65 1010.4
20181212130239 30 96 0.0 0.0 0.00 0.00 0.00 66 1010.5
20181212125738 30 122 0.0 0.0 0.00 0.00 0.00 66 1010.5
20181212125239 30 142 0.0 0.0 0.00 0.00 0.00 66 1010.5
20181212124739 30 162 0.0 0.0 0.00 0.00 0.00 65 1010.5
20181212124239 31 163 0.0 0.0 0.00 0.00 0.00 65 1010.5
20181212123739 31 181 0.0 0.0 0.00 0.00 0.00 65 1010.6
20181212123238 30 181 0.0 0.0 0.00 0.00 0.00 65 1010.6
20181212122739 31 181 0.0 0.0 0.00 0.00 0.00 65 1010.8
20181212122239 31 181 0.0 0.0 0.00 0.00 0.00 65 1010.9
20181212121738 31 193 0.0 0.0 0.00 0.00 0.00 65 1011.0
20181212121238 31 200 0.0 0.0 0.00 0.00 0.00 65 1011.0
20181212120739 31 186 0.0 0.0 0.00 0.00 0.00 65 1011.1
20181212120239 31 188 0.0 0.0 0.00 0.00 0.00 64 1011.2
20181212115739 31 188 0.0 0.0 0.00 0.00 0.00 64 1011.3
20181212115239 31 188 0.0 0.0 0.00 0.00 0.00 64 1011.4
20181212114739 31 197 0.0 0.0 0.00 0.00 0.00 64 1011.4
20181212114239 31 197 0.0 0.0 0.00 0.00 0.00 65 1011.5
20181212113739 31 167 0.0 0.0 0.00 0.00 0.00 64 1011.6
20181212113238 31 214 0.0 0.0 0.00 0.00 0.00 65 1011.8
20181212112738 31 181 0.0 0.0 0.00 0.00 0.00 65 1011.9
20181212112239 31 228 0.0 0.0 0.00 0.00 0.00 64 1012.0
20181212111739 31 252 0.0 0.0 0.00 0.00 0.00 64 1012.0
20181212111239 32 240 0.0 0.0 0.00 0.00 0.00 64 1012.2
20181212110739 31 231 0.0 0.0 0.00 0.00 0.00 65 1012.3
20181212110239 30 246 0.0 0.0 0.00 0.00 0.00 65 1012.3
20181212105739 31 221 0.0 0.0 0.00 0.00 0.00 65 1012.6
20181212105239 31 236 0.0 0.0 0.00 0.00 0.00 65 1012.7
20181212104738 31 235 0.0 0.0 0.00 0.00 0.00 64 1012.7
20181212104239 31 236 0.0 0.0 0.00 0.00 0.00 65 1012.8
20181212103739 31 226 0.0 0.0 0.00 0.00 0.00 65 1013.0
20181212103239 31 226 0.0 0.0 0.00 0.00 0.00 65 1012.9
20181212102740 31 239 0.0 0.0 0.00 0.00 0.00 64 1013.1
20181212102239 31 239 0.0 0.0 0.00 0.00 0.00 63 1013.2
20181212101739 31 239 0.0 0.0 0.00 0.00 0.00 64 1013.3
20181212101239 31 240 0.0 0.0 0.00 0.00 0.00 64 1013.4
20181212100739 31 240 0.0 0.0 0.00 0.00 0.00 64 1013.5
20181212100239 31 260 0.0 0.0 0.00 0.00 0.00 64 1013.7
20181212095738 31 267 0.0 0.0 0.00 0.00 0.00 63 1013.8
20181212095239 31 240 0.0 0.0 0.00 0.00 0.00 63 1013.8
20181212094739 31 242 0.0 0.0 0.00 0.00 0.00 64 1013.9
20181212094239 31 222 0.0 0.0 0.00 0.00 0.00 64 1014.0
20181212093739 31 219 0.0 0.0 0.00 0.00 0.00 63 1014.1
20181212093239 31 188 0.0 0.0 0.00 0.00 0.00 62 1014.2
20181212092739 31 188 0.0 0.0 0.00 0.00 0.00 62 1014.3
20181212092239 31 194 0.0 0.0 0.00 0.00 0.00 62 1014.4
20181212091739 32 194 0.0 0.0 0.00 0.00 0.00 62 1014.5
20181212091239 32 179 0.0 0.0 0.00 0.00 0.00 62 1014.6
20181212090739 32 200 0.0 0.0 0.00 0.00 0.00 63 1014.6
20181212090239 32 205 0.0 0.0 0.00 0.00 0.00 63 1014.8
20181212085739 33 250 0.0 0.0 0.00 0.00 0.00 61 1014.8
20181212085239 33 155 0.0 0.0 0.00 0.00 0.00 60 1014.7
20181212084739 34 155 0.0 0.0 0.00 0.00 0.00 58 1014.9
20181212084239 35 79 0.0 0.0 0.00 0.00 0.00 59 1015.0
20181212083739 34 1 0.0 0.0 0.00 0.00 0.00 59 1015.0
20181212083239 34 20 0.0 0.0 0.00 0.00 0.00 59 1015.1
20181212082739 34 20 0.0 0.0 0.00 0.00 0.00 60 1015.3
20181212082239 33 267 0.0 0.0 0.00 0.00 0.00 59 1015.3
20181212081739 33 340 0.0 0.0 0.00 0.00 0.00 59 1015.4
20181212081239 33 356 0.0 0.0 0.00 0.00 0.00 59 1015.6
20181212080739 33 236 0.0 0.0 0.00 0.00 0.00 58 1015.8
20181212080239 33 236 0.0 0.0 0.00 0.00 0.00 59 1015.8
20181212075739 33 236 0.0 0.0 0.00 0.00 0.00 59 1015.9
20181212075239 33 236 0.0 0.0 0.00 0.00 0.00 60 1015.9
20181212074739 33 236 0.0 0.0 0.00 0.00 0.00 59 1016.0
20181212074238 33 133 0.0 0.0 0.00 0.00 0.00 60 1016.0
20181212073739 33 287 0.0 0.0 0.00 0.00 0.00 60 1016.1
20181212073239 33 262 0.0 0.0 0.00 0.00 0.00 59 1016.1
20181212072739 33 163 0.0 0.0 0.00 0.00 0.00 58 1016.2
20181212072239 34 181 0.0 0.0 0.00 0.00 0.00 57 1016.4
20181212071739 34 181 0.0 0.0 0.00 0.00 0.00 58 1016.3
20181212071239 33 200 0.0 0.0 0.00 0.00 0.00 59 1016.4
20181212070739 33 195 0.0 0.0 0.00 0.00 0.00 59 1016.4
20181212070239 34 218 0.0 0.0 0.00 0.00 0.00 59 1016.4
20181212065739 34 105 0.0 0.0 0.00 0.00 0.00 58 1016.6
20181212065239 34 193 0.0 0.0 0.00 0.00 0.00 57 1016.6
20181212064739 34 239 0.0 0.0 0.00 0.00 0.00 57 1016.6
20181212064239 34 247 0.0 0.0 0.00 0.00 0.00 57 1016.7
20181212063739 34 231 0.0 0.0 0.00 0.00 0.00 57 1016.7
20181212063239 33 236 0.0 0.0 0.00 0.00 0.00 58 1016.9
20181212062739 33 8 0.0 0.0 0.00 0.00 0.00 58 1017.0
20181212062239 33 8 0.0 0.0 0.00 0.00 0.00 57 1017.2
20181212061739 34 8 0.0 0.0 0.00 0.00 0.00 57 1017.2
20181212061238 34 7 0.0 0.0 0.00 0.00 0.00 55 1017.2
20181212060739 34 8 0.0 0.0 0.00 0.00 0.00 55 1017.2
20181212060239 35 14 0.0 0.0 0.00 0.00 0.00 53 1017.2
20181212055739 36 15 0.0 0.0 0.00 0.00 0.00 54 1017.3
20181212055239 36 76 0.0 0.0 0.00 0.00 0.00 54 1017.3
20181212054739 36 94 0.0 0.0 0.00 0.00 0.00 56 1017.1
20181212054239 35 115 0.0 0.0 0.00 0.00 0.00 57 1017.1
20181212053739 35 160 0.0 0.0 0.00 0.00 0.00 54 1017.1
20181212053239 35 160 0.0 0.0 0.00 0.00 0.00 54 1017.1
20181212052739 36 300 0.0 0.0 0.00 0.00 0.00 53 1017.3
20181212052239 36 300 0.0 0.0 0.00 0.00 0.00 52 1017.1
20181212051739 36 300 0.0 0.0 0.00 0.00 0.00 52 1017.2
20181212051239 36 91 0.0 0.0 0.00 0.00 0.00 54 1017.1
20181212050739 35 304 0.0 0.0 0.00 0.00 0.00 55 1017.1
20181212050239 35 113 0.0 0.0 0.00 0.00 0.00 56 1017.1
20181212045739 35 250 0.0 0.0 0.00 0.00 0.00 53 1017.1
20181212045239 35 250 0.0 0.0 0.00 0.00 0.00 52 1017.2
20181212044738 35 250 0.0 0.0 0.00 0.00 0.00 52 1017.2
20181212044239 35 250 0.0 0.0 0.00 0.00 0.00 52 1017.3
20181212043739 35 250 0.0 0.0 0.00 0.00 0.00 50 1017.3
20181212043238 36 250 0.0 0.0 0.00 0.00 0.00 50 1017.4
20181212042739 36 98 0.0 0.0 0.00 0.00 0.00 49 1017.3
20181212042239 37 97 0.0 0.0 0.00 0.00 0.00 48 1017.2
20181212041738 37 73 0.0 0.0 0.00 0.00 0.00 47 1017.3
20181212041239 38 68 0.0 0.0 0.00 0.00 0.00 46 1017.5
20181212040739 38 68 0.0 0.0 0.00 0.00 0.00 45 1017.3
20181212040239 38 27 0.0 0.0 0.00 0.00 0.00 44 1017.3
20181212035738 39 30 0.0 0.0 0.00 0.00 0.00 44 1017.4
20181212035238 39 352 0.0 0.0 0.00 0.00 0.00 43 1017.4
20181212034739 39 337 0.0 0.0 0.00 0.00 0.00 43 1017.5
20181212034239 39 323 0.0 0.0 0.00 0.00 0.00 43 1017.4
20181212033741 39 328 0.0 0.0 0.00 0.00 0.00 43 1017.3
20181212033239 38 358 0.0 0.0 0.00 0.00 0.00 43 1017.4
20181212032739 38 281 0.0 0.0 0.00 0.00 0.00 44 1017.4
20181212032239 38 267 0.0 0.0 0.00 0.00 0.00 42 1017.4
20181212031738 39 253 0.0 0.0 0.00 0.00 0.00 41 1017.3
20181212031238 39 250 0.0 0.0 0.00 0.00 0.00 41 1017.2
20181212030739 39 247 0.0 0.0 0.00 0.00 0.00 40 1017.2
20181212030239 40 276 0.0 0.0 0.00 0.00 0.00 39 1017.2
20181212025739 40 295 0.0 0.0 0.00 0.00 0.00 39 1017.3
20181212025239 40 263 0.0 0.0 0.00 0.00 0.00 39 1017.2
20181212024739 40 263 0.0 0.0 0.00 0.00 0.00 39 1017.1
20181212024239 39 263 0.0 0.0 0.00 0.00 0.00 39 1017.1
20181212023739 40 263 0.0 0.0 0.00 0.00 0.00 40 1017.0
20181212023239 40 4 0.0 0.0 0.00 0.00 0.00 40 1017.0
20181212022738 40 5 0.0 0.0 0.00 0.00 0.00 41 1017.0
20181212022238 39 281 0.0 0.0 0.00 0.00 0.00 41 1017.0
20181212021739 39 280 0.0 0.0 0.00 0.00 0.00 42 1016.9
20181212021238 39 281 0.0 0.0 0.00 0.00 0.00 42 1016.7
20181212020738 39 281 0.0 0.0 0.00 0.00 0.00 42 1016.7
20181212020238 39 281 0.0 0.0 0.00 0.00 0.00 43 1016.5
20181212015738 38 280 0.0 0.0 0.00 0.00 0.00 44 1016.4
20181212015239 39 280 0.0 0.0 0.00 0.00 0.00 44 1016.3
20181212014739 39 271 0.0 0.0 0.00 0.00 0.00 46 1016.3
20181212014239 38 273 0.0 0.0 0.00 0.00 0.00 48 1016.2
20181212013739 38 300 0.0 0.0 0.00 0.00 0.00 50 1016.2
20181212013239 38 270 0.0 0.0 0.00 0.00 0.00 51 1016.1
20181212012738 37 307 0.0 0.0 0.00 0.00 0.00 53 1016.0
20181212012239 37 248 0.0 0.0 0.00 0.00 0.00 55 1016.1
20181212011738 37 242 0.0 0.0 0.00 0.00 0.00 55 1016.1
20181212011240 36 240 0.0 0.0 0.00 0.00 0.00 55 1015.9
20181212010739 37 238 0.0 0.0 0.00 0.00 0.00 55 1015.9
20181212010238 37 217 0.0 0.0 0.00 0.00 0.00 54 1015.9
20181212005738 37 45 0.0 0.0 0.00 0.00 0.00 53 1015.8
20181212005239 38 46 0.0 0.0 0.00 0.00 0.00 52 1015.7
20181212004738 38 215 0.0 0.0 0.00 0.00 0.00 52 1015.5
20181212004238 39 256 0.0 0.0 0.00 0.00 0.00 51 1015.6
20181212003739 39 248 0.0 0.0 0.00 0.00 0.00 50 1015.5
20181212003239 40 239 0.0 0.0 0.00 0.00 0.00 49 1015.4
20181212002739 39 232 0.0 0.0 0.00 0.00 0.00 50 1015.4
20181212002239 39 153 0.0 0.0 0.00 0.00 0.00 50 1015.2
20181212001739 39 155 0.0 0.0 0.00 0.00 0.00 49 1015.2
20181212001238 40 79 0.0 0.0 0.00 0.00 0.00 48 1015.2
20181212000739 40 256 0.0 0.0 0.00 0.00 0.00 48 1015.0
20181212000239 40 259 0.0 3.0 0.00 0.00 0.00 47 1014.9
20181211235739 41 242 0.0 1.0 0.00 0.00 0.00 47 1014.9
20181211235239 41 224 0.0 0.0 0.00 0.00 0.00 46 1015.0
20181211234739 42 226 0.0 0.0 0.00 0.00 0.00 44 1014.9
20181211234238 43 203 0.0 0.0 0.00 0.00 0.00 42 1014.9
20181211233739 43 191 0.0 0.0 0.00 0.00 0.00 40 1015.0
20181211233239 44 232 0.0 0.0 0.00 0.00 0.00 38 1014.8
20181211232739 45 156 0.0 0.0 0.00 0.00 0.00 37 1014.7
20181211232239 45 188 0.0 0.0 0.00 0.00 0.00 34 1014.8
20181211231738 46 208 0.0 0.0 0.00 0.00 0.00 32 1014.5
20181211231239 46 177 0.0 0.0 0.00 0.00 0.00 30 1014.4
20181211230739 47 169 0.0 3.0 0.00 0.00 0.00 29 1014.4
20181211230239 47 191 0.0 4.0 0.00 0.00 0.00 28 1014.4
20181211225739 47 150 0.0 6.0 0.00 0.00 0.00 28 1014.3
20181211225239 47 165 0.0 4.0 0.00 0.00 0.00 29 1014.3
20181211224739 47 156 4.0 8.0 0.00 0.00 0.00 31 1014.2
20181211224239 47 139 0.0 0.0 0.00 0.00 0.00 33 1014.2
20181211223739 47 157 0.0 4.0 0.00 0.00 0.00 32 1014.1
20181211223238 47 160 0.0 0.0 0.00 0.00 0.00 33 1014.0
20181211222739 47 102 0.0 0.0 0.00 0.00 0.00 32 1013.8
20181211222238 48 225 0.0 0.0 0.00 0.00 0.00 32 1013.7
20181211221739 48 152 0.0 5.0 0.00 0.00 0.00 32 1013.6
20181211221238 49 170 0.0 0.0 0.00 0.00 0.00 31 1013.5
20181211220739 48 170 0.0 0.0 0.00 0.00 0.00 32 1013.5
20181211220238 48 134 0.0 6.0 0.00 0.00 0.00 31 1013.4
20181211215738 48 211 0.0 5.0 0.00 0.00 0.00 31 1013.3
20181211215239 48 224 0.0 5.0 0.00 0.00 0.00 31 1013.2
20181211214739 48 169 4.0 8.0 0.00 0.00 0.00 31 1013.1
20181211214240 49 141 4.0 8.0 0.00 0.00 0.00 30 1013.0
20181211213739 49 245 0.0 6.0 0.00 0.00 0.00 30 1013.0
20181211213239 48 156 0.0 4.0 0.00 0.00 0.00 30 1013.0
20181211212739 48 193 0.0 7.0 0.00 0.00 0.00 30 1012.9
20181211212239 49 142 2.0 6.0 0.00 0.00 0.00 29 1012.9
20181211211739 48 160 0.0 1.0 0.00 0.00 0.00 30 1012.8
20181211211238 48 145 0.0 1.0 0.00 0.00 0.00 30 1012.6
20181211210738 48 152 1.0 2.0 0.00 0.00 0.00 29 1012.6
20181211210238 47 101 0.0 1.0 0.00 0.00 0.00 28 1012.6
20181211205739 47 105 0.0 7.0 0.00 0.00 0.00 28 1012.7
20181211205238 47 153 5.0 5.0 0.00 0.00 0.00 28 1012.6
20181211204739 47 169 0.0 1.0 0.00 0.00 0.00 29 1012.6
20181211204239 47 160 0.0 5.0 0.00 0.00 0.00 28 1012.5
20181211203739 47 142 0.0 5.0 0.00 0.00 0.00 28 1012.4
20181211203239 47 112 0.0 2.0 0.00 0.00 0.00 28 1012.3
20181211202739 46 177 0.0 0.0 0.00 0.00 0.00 28 1012.3
20181211202239 46 123 0.0 4.0 0.00 0.00 0.00 28 1012.4
20181211201738 45 145 0.0 0.0 0.00 0.00 0.00 29 1012.6
20181211201240 46 65 0.0 0.0 0.00 0.00 0.00 29 1012.4
20181211200739 45 148 0.0 1.0 0.00 0.00 0.00 30 1012.4
20181211200239 44 86 0.0 4.0 0.00 0.00 0.00 30 1012.4
20181211195739 44 77 0.0 0.0 0.00 0.00 0.00 30 1012.4
20181211195239 43 291 0.0 0.0 0.00 0.00 0.00 31 1012.5
20181211194738 43 86 0.0 0.0 0.00 0.00 0.00 31 1012.5
20181211194239 42 98 0.0 1.0 0.00 0.00 0.00 32 1012.6
20181211193739 42 80 0.0 4.0 0.00 0.00 0.00 31 1012.6
20181211193239 42 58 0.0 0.0 0.00 0.00 0.00 32 1012.7
20181211192739 42 77 0.0 0.0 0.00 0.00 0.00 32 1012.8
20181211192238 42 71 0.0 0.0 0.00 0.00 0.00 33 1012.9
20181211191739 42 105 0.0 0.0 0.00 0.00 0.00 32 1013.0
20181211191238 42 110 0.0 0.0 0.00 0.00 0.00 33 1013.0
20181211190738 41 167 0.0 0.0 0.00 0.00 0.00 35 1012.9
20181211190238 41 91 0.0 0.0 0.00 0.00 0.00 35 1013.0
20181211185740 41 92 0.0 0.0 0.00 0.00 0.00 35 1013.1
20181211185239 41 71 0.0 0.0 0.00 0.00 0.00 36 1013.2
20181211184739 41 64 0.0 0.0 0.00 0.00 0.00 37 1013.3
20181211184239 41 72 0.0 0.0 0.00 0.00 0.00 38 1013.4
20181211183738 40 98 0.0 0.0 0.00 0.00 0.00 38 1013.5
20181211183239 40 101 0.0 0.0 0.00 0.00 0.00 38 1013.5
20181211182739 40 93 0.0 0.0 0.00 0.00 0.00 40 1013.6
20181211182238 40 93 0.0 0.0 0.00 0.00 0.00 40 1013.7
20181211181739 41 75 0.0 0.0 0.00 0.00 0.00 39 1013.7
20181211181239 41 160 0.0 0.0 0.00 0.00 0.00 38 1013.8
20181211180739 40 163 0.0 0.0 0.00 0.00 0.00 39 1013.8
20181211180239 39 101 0.0 0.0 0.00 0.00 0.00 40 1013.9
20181211175739 39 139 0.0 0.0 0.00 0.00 0.00 40 1014.0
20181211175239 39 152 0.0 0.0 0.00 0.00 0.00 42 1014.0
20181211174739 38 163 0.0 0.0 0.00 0.00 0.00 42 1014.0
20181211174238 38 139 0.0 0.0 0.00 0.00 0.00 41 1014.0
20181211173738 39 150 0.0 0.0 0.00 0.00 0.00 41 1014.1
20181211173238 39 153 0.0 3.0 0.00 0.00 0.00 39 1014.0
20181211172738 40 148 0.0 0.0 0.00 0.00 0.00 38 1014.0
20181211172239 39 183 0.0 0.0 0.00 0.00 0.00 37 1014.0
20181211171738 39 155 0.0 0.0 0.00 0.00 0.00 38 1014.0
20181211171239 39 158 0.0 0.0 0.00 0.00 0.00 38 1014.1
20181211170739 39 155 0.0 0.0 0.00 0.00 0.00 37 1014.2
20181211170238 39 197 0.0 0.0 0.00 0.00 0.00 36 1014.2
20181211165739 38 138 0.0 0.0 0.00 0.00 0.00 38 1014.1
20181211165238 37 76 0.0 0.0 0.00 0.00 0.00 38 1014.1
20181211164738 36 76 0.0 0.0 0.00 0.00 0.00 41 1014.1
20181211164238 36 73 0.0 0.0 0.00 0.00 0.00 43 1014.0
20181211163739 35 73 0.0 0.0 0.00 0.00 0.00 45 1014.1
20181211163238 34 277 0.0 0.0 0.00 0.00 0.00 45 1014.2
20181211162739 33 276 0.0 0.0 0.00 0.00 0.00 48 1014.3